• In Moldova, Republic
  • List of Countries
  • For 7 days
  • Water Temperature
  • Satellite Maps
  • Weather Map
  • Weather Widgets
  • user-avatar
    Login

    Hourly Weather Namibe

    Today, 30 May, Tuesday

    Time Temperature Precipitation Wind Pressure Humidity
    00:00 +29°C° 0 mm 4 mps 760 mmHg 29%
    01:00 +28°C° 0 mm 4 mps 760 mmHg 29%
    02:00 +28°C° 0 mm 4 mps 760 mmHg 28%
    03:00 +28°C° 0 mm 4 mps 760 mmHg 27%
    04:00 +27°C° 0 mm 4 mps 760 mmHg 27%
    05:00 +27°C° 0 mm 4 mps 760 mmHg 26%
    06:00 +27°C° 0 mm 4 mps 760 mmHg 24%
    07:00 +27°C° 0 mm 4 mps 760 mmHg 23%
    08:00 +30°C° 0 mm 4 mps 760 mmHg 20%
    09:00 +33°C° 0 mm 4 mps 760 mmHg 18%
    10:00 +36°C° 0 mm 5 mps 761 mmHg 15%
    11:00 +37°C° 0 mm 5 mps 760 mmHg 15%
    12:00 +39°C° 0 mm 6 mps 760 mmHg 16%
    13:00 +40°C° 0 mm 6 mps 759 mmHg 16%
    14:00 +40°C° 0 mm 6 mps 759 mmHg 16%
    15:00 +39°C° 0 mm 7 mps 759 mmHg 17%
    16:00 +39°C° 0 mm 7 mps 758 mmHg 17%
    17:00 +36°C° 0 mm 7 mps 759 mmHg 21%
    18:00 +34°C° 0 mm 7 mps 759 mmHg 25%
    19:00 +32°C° 0 mm 7 mps 759 mmHg 28%
    20:00 +30°C° 0 mm 6 mps 760 mmHg 29%
    21:00 +29°C° 0 mm 6 mps 760 mmHg 29%
    22:00 +29°C° 0 mm 5 mps 760 mmHg 30%
    23:00 +28°C° 0 mm 5 mps 760 mmHg 29%

    Tomorrow, 31 May, Wednesday

    Time Temperature Precipitation Wind Pressure Humidity
    00:00 +28°C° 0 mm 4 mps 760 mmHg 28%
    01:00 +28°C° 0 mm 4 mps 760 mmHg 26%
    02:00 +27°C° 0 mm 4 mps 760 mmHg 26%
    03:00 +27°C° 0 mm 4 mps 760 mmHg 25%
    04:00 +27°C° 0 mm 4 mps 759 mmHg 24%
    05:00 +27°C° 0 mm 4 mps 760 mmHg 23%
    06:00 +27°C° 0 mm 4 mps 760 mmHg 23%
    07:00 +27°C° 0 mm 4 mps 760 mmHg 22%
    08:00 +30°C° 0 mm 4 mps 760 mmHg 20%
    09:00 +34°C° 0 mm 4 mps 760 mmHg 18%
    10:00 +36°C° 0 mm 4 mps 760 mmHg 16%
    11:00 +37°C° 0 mm 5 mps 760 mmHg 17%
    12:00 +40°C° 0 mm 6 mps 759 mmHg 18%
    13:00 +41°C° 0 mm 6 mps 758 mmHg 18%
    14:00 +40°C° 0 mm 7 mps 758 mmHg 21%
    15:00 +38°C° 0 mm 8 mps 758 mmHg 25%
    16:00 +37°C° 0 mm 9 mps 757 mmHg 28%
    17:00 +34°C° 0 mm 8 mps 758 mmHg 33%
    18:00 +32°C° 0 mm 7 mps 758 mmHg 38%
    19:00 +29°C° 0 mm 7 mps 759 mmHg 44%
    20:00 +29°C° 0 mm 6 mps 759 mmHg 43%
    21:00 +28°C° 0 mm 5 mps 760 mmHg 43%
    22:00 +28°C° 0 mm 4 mps 760 mmHg 43%
    23:00 +28°C° 0 mm 4 mps 760 mmHg 42%

    Day after tomorrow, 1 June, Thursday

    Time Temperature Precipitation Wind Pressure Humidity
    00:00 +28°C° 0 mm 4 mps 760 mmHg 41%
    01:00 +28°C° 0 mm 4 mps 760 mmHg 40%
    02:00 +28°C° 0 mm 4 mps 759 mmHg 38%
    03:00 +29°C° 0 mm 4 mps 759 mmHg 37%
    04:00 +29°C° 0 mm 4 mps 759 mmHg 35%
    05:00 +29°C° 0 mm 4 mps 759 mmHg 36%
    06:00 +28°C° 0 mm 4 mps 760 mmHg 38%
    07:00 +28°C° 0 mm 4 mps 760 mmHg 39%
    08:00 +30°C° 0 mm 4 mps 760 mmHg 33%
    09:00 +34°C° 0 mm 4 mps 760 mmHg 27%
    10:00 +36°C° 0 mm 5 mps 761 mmHg 21%
    11:00 +37°C° 0 mm 5 mps 760 mmHg 19%
    12:00 +40°C° 0 mm 5 mps 759 mmHg 18%
    13:00 +41°C° 0 mm 5 mps 758 mmHg 17%
    14:00 +41°C° 0 mm 5 mps 758 mmHg 19%
    15:00 +40°C° 0 mm 6 mps 757 mmHg 21%
    16:00 +40°C° 0 mm 6 mps 757 mmHg 23%
    17:00 +36°C° 0 mm 6 mps 758 mmHg 31%
    18:00 +34°C° 0 mm 5 mps 758 mmHg 39%
    19:00 +32°C° 0 mm 5 mps 759 mmHg 48%
    20:00 +30°C° 0 mm 4 mps 759 mmHg 50%
    21:00 +29°C° 0 mm 4 mps 760 mmHg 52%
    22:00 +29°C° 0 mm 3 mps 760 mmHg 54%
    23:00 +28°C° 0 mm 3 mps 760 mmHg 56%

    2 June, Friday

    Time Temperature Precipitation Wind Pressure Humidity
    00:00 +28°C° 0 mm 4 mps 760 mmHg 57%
    01:00 +27°C° 0 mm 4 mps 760 mmHg 59%
    02:00 +27°C° 0 mm 4 mps 759 mmHg 60%
    03:00 +26°C° 0 mm 4 mps 759 mmHg 61%
    04:00 +26°C° 0 mm 4 mps 759 mmHg 62%
    05:00 +26°C° 0 mm 4 mps 759 mmHg 61%
    06:00 +26°C° 0 mm 4 mps 760 mmHg 60%
    07:00 +26°C° 0 mm 4 mps 760 mmHg 59%
    08:00 +29°C° 0 mm 4 mps 760 mmHg 48%
    09:00 +31°C° 0 mm 3 mps 760 mmHg 37%
    10:00 +35°C° 0 mm 3 mps 760 mmHg 27%
    11:00 +36°C° 0 mm 4 mps 760 mmHg 24%
    12:00 +38°C° 0 mm 4 mps 759 mmHg 21%
    13:00 +40°C° 0 mm 4 mps 758 mmHg 18%
    14:00 +39°C° 0 mm 5 mps 758 mmHg 21%
    15:00 +39°C° 0 mm 6 mps 758 mmHg 23%
    16:00 +39°C° 0 mm 7 mps 758 mmHg 25%
    17:00 +35°C° 0 mm 7 mps 758 mmHg 35%
    18:00 +32°C° 0 mm 6 mps 759 mmHg 45%
    19:00 +29°C° 0 mm 6 mps 759 mmHg 55%
    20:00 +29°C° 0 mm 5 mps 760 mmHg 55%
    21:00 +28°C° 0 mm 5 mps 760 mmHg 54%
    22:00 +28°C° 0 mm 5 mps 761 mmHg 54%
    23:00 +27°C° 0 mm 4 mps 761 mmHg 54%

    3 June, Saturday

    Time Temperature Precipitation Wind Pressure Humidity
    00:00 +27°C° 0 mm 4 mps 760 mmHg 54%
    01:00 +26°C° 0 mm 4 mps 760 mmHg 54%
    02:00 +26°C° 0 mm 4 mps 760 mmHg 56%
    03:00 +26°C° 0 mm 4 mps 760 mmHg 57%
    04:00 +25°C° 0 mm 4 mps 760 mmHg 59%
    05:00 +25°C° 0 mm 4 mps 760 mmHg 58%
    06:00 +25°C° 0 mm 4 mps 760 mmHg 58%
    07:00 +25°C° 0 mm 4 mps 761 mmHg 58%
    08:00 +27°C° 0 mm 4 mps 761 mmHg 49%
    09:00 +30°C° 0 mm 4 mps 761 mmHg 39%
    10:00 +34°C° 0 mm 4 mps 762 mmHg 29%
    11:00 +35°C° 0 mm 5 mps 761 mmHg 26%
    12:00 +38°C° 0 mm 6 mps 760 mmHg 23%
    13:00 +39°C° 0 mm 7 mps 759 mmHg 20%
    14:00 +38°C° 0 mm 7 mps 759 mmHg 23%
    15:00 +38°C° 0 mm 8 mps 758 mmHg 26%
    16:00 +37°C° 0 mm 8 mps 758 mmHg 28%
    17:00 +34°C° 0 mm 8 mps 758 mmHg 37%
    18:00 +32°C° 0 mm 8 mps 759 mmHg 45%
    19:00 +28°C° 0 mm 7 mps 759 mmHg 53%
    20:00 +28°C° 0 mm 7 mps 760 mmHg 53%
    21:00 +28°C° 0 mm 6 mps 760 mmHg 54%
    22:00 +27°C° 0 mm 5 mps 760 mmHg 54%
    23:00 +27°C° 0 mm 5 mps 760 mmHg 55%

    4 June, Sunday

    Time Temperature Precipitation Wind Pressure Humidity
    00:00 +26°C° 0 mm 5 mps 760 mmHg 55%
    01:00 +26°C° 0 mm 4 mps 760 mmHg 56%
    02:00 +25°C° 0 mm 4 mps 759 mmHg 56%
    03:00 +25°C° 0 mm 4 mps 759 mmHg 57%
    04:00 +25°C° 0 mm 4 mps 759 mmHg 57%
    05:00 +25°C° 0 mm 4 mps 759 mmHg 55%
    06:00 +25°C° 0 mm 3 mps 760 mmHg 54%
    07:00 +25°C° 0 mm 3 mps 760 mmHg 52%
    08:00 +28°C° 0 mm 3 mps 760 mmHg 43%
    09:00 +32°C° 0 mm 4 mps 760 mmHg 34%
    10:00 +35°C° 0 mm 4 mps 760 mmHg 24%
    11:00 +36°C° 0 mm 4 mps 759 mmHg 22%
    12:00 +39°C° 0 mm 5 mps 759 mmHg 19%
    13:00 +40°C° 0 mm 6 mps 758 mmHg 16%
    14:00 +39°C° 0 mm 6 mps 758 mmHg 21%
    15:00 +38°C° 0 mm 7 mps 757 mmHg 26%
    16:00 +37°C° 0 mm 8 mps 757 mmHg 31%
    17:00 +34°C° 0 mm 7 mps 758 mmHg 41%
    18:00 +30°C° 0 mm 6 mps 758 mmHg 51%
    19:00 +28°C° 0 mm 5 mps 759 mmHg 61%
    20:00 +28°C° 0 mm 4 mps 759 mmHg 61%
    21:00 +27°C° 0 mm 4 mps 759 mmHg 62%
    22:00 +27°C° 0 mm 3 mps 759 mmHg 63%
    23:00 +27°C° 0 mm 3 mps 759 mmHg 61%
    Show more